User: anonymous   Login
Location: Unspecified
(0.0000°N, 0.0000°E)
Time: 20:40:28
(UTC+00:00)
Language:

NAVSTAR 65 (USA 213) - Orbit

View from above orbital plane
View from above orbital plane
View from above satellite
View from above satellite

Ground track
Ground track

The orbit data is extracted from the following two-line orbital elements,

1 36585U 10022A   17088.80778584 -.00000053 +00000-0 +00000-0 0  9992
2 36585 056.0068 343.7716 0062151 043.0784 141.5519 02.00570928050077
Epoch (UTC): 29 March 2017 19:23:12
Eccentricity: 0.0062151
inclination: 56.0068°
perigee height: 20016 km
apogee height: 20346 km
right ascension of ascending node: 343.7716°
argument of perigee: 43.0784°
revolutions per day: 2.00570928
mean anomaly at epoch: 141.5519°
orbit number at epoch: 5007

The dashed part of the orbit path shows where the satellite is in the earth's shadow,  

DLR